Home   Weather   Siegen   Past weeks
Flag for Germany

Past Weather in Siegen, North Rhine-Westphalia, Germany — Yesterday and Last 2 Weeks

Now
41 °F

Clear.


Feels Like: 41 °F
Forecast: 60 / 38 °F
Wind: 2 mph from North

Location: Koeln / Bonn

Current Time: Mar 22, 2019 at 1:20:35 am

Latest Report: Mar 22, 2019 at 12:50 am


Visibility: 10 mi

Pressure: 30.48 "Hg

Humidity: 87%

Dew Point: 37 °F

Location of SiegenLocation

Past Weather in Siegen — Graph

°F

Siegen Temperature Yesterday

Maximum temperature yesterday: 63 °F (at 1:20 pm)
Minimum temperature yesterday: 32 °F (at 4:50 am)
Average temperature yesterday: 48 °F

High & Low Weather Summary for the Past Weeks

 TemperatureHumidityPressure
High63 °F (Mar 21, 1:20 pm)100% (Mar 10, 10:20 pm)30.57 "Hg (Mar 10, 10:20 pm)
Low28 °F (Mar 19, 6:20 am)37% (Mar 12, 5:50 pm)29.21 "Hg (Mar 7, 5:20 am)
Average45 °F73%29.94 "Hg
* Reported Mar 7 12:20 am — Mar 22 12:20 am, Siegen. Weather by CustomWeather, © 2019

Note: Actual official high and low records may vary slightly from our data, if they occured in-between our weather recording intervals... More about our weather records

Advertising

Siegen Weather History for the Previous 24 Hours

Scroll right to see more
 ConditionsComfort  
Time TempWeatherWind HumidityBarometerVisibility
12:20 am
Fri, Mar 22
43 °FPassing clouds.3 mph87%30.48 "HgN/A
11:50 pm
Thu, Mar 21
43 °FPassing clouds.3 mph81%30.48 "HgN/A
11:20 pm45 °FClear.5 mph81%30.48 "Hg10 mi
10:50 pm45 °FClear.2 mph81%30.48 "Hg10 mi
10:20 pm46 °FClear.2 mph76%30.48 "Hg10 mi
9:50 pm48 °FClear.2 mph71%30.48 "Hg10 mi
9:20 pm50 °FClear.3 mph67%30.48 "Hg10 mi
8:50 pm52 °FClear.3 mph67%30.48 "Hg10 mi
8:20 pm54 °FClear.3 mph58%30.48 "Hg10 mi
7:50 pm54 °FPassing clouds.5 mph58%30.48 "HgN/A
7:20 pm55 °FPassing clouds.3 mph55%30.48 "HgN/A
6:50 pm57 °FClear.2 mph48%30.45 "Hg10 mi
6:20 pm63 °FSunny.2 mph39%30.48 "Hg10 mi
5:50 pm63 °FPassing clouds.3 mph39%30.48 "HgN/A
5:20 pm63 °FSunny.2 mph39%30.48 "Hg10 mi
4:50 pm63 °FSunny.2 mph37%30.48 "Hg10 mi
4:20 pm63 °FSunny.2 mph37%30.48 "Hg10 mi
3:50 pm63 °FPassing clouds.5 mph39%30.48 "HgN/A
3:20 pm63 °FSunny.5 mph37%30.48 "Hg10 mi
2:50 pm63 °FPassing clouds.5 mph37%30.51 "HgN/A
2:20 pm61 °FPassing clouds.5 mph39%30.51 "HgN/A
1:50 pm63 °FSunny.3 mph39%30.51 "Hg10 mi
1:20 pm63 °FSunny.3 mph37%30.51 "Hg10 mi
12:50 pm61 °FSunny.3 mph39%30.54 "Hg10 mi
12:20 pm59 °FSunny.3 mph42%30.54 "Hg10 mi
11:50 am57 °FPassing clouds.6 mph44%30.54 "HgN/A
11:20 am57 °FPassing clouds.3 mph44%30.57 "HgN/A
10:50 am55 °FSunny.3 mph47%30.57 "Hg10 mi
10:20 am52 °FPassing clouds.5 mph58%30.57 "HgN/A
9:50 am48 °FPassing clouds.6 mph62%30.57 "HgN/A
9:20 am46 °FPassing clouds.6 mph71%30.57 "HgN/A
8:50 am45 °FPassing clouds.5 mph76%30.57 "HgN/A
8:20 am41 °FSunny.2 mph87%30.57 "Hg10 mi
7:50 am36 °FSunny.3 mph93%30.57 "Hg10 mi
7:20 am36 °FSunny.3 mph93%30.57 "Hg10 mi
6:50 am36 °FSunny.2 mph87%30.57 "Hg10 mi
6:20 am34 °FClear.6 mph93%30.57 "Hg10 mi
5:50 am34 °FPassing clouds.3 mph93%30.54 "HgN/A
5:20 am32 °FPassing clouds.3 mph93%30.54 "HgN/A
4:50 am32 °FClear.2 mph93%30.54 "Hg10 mi
4:20 am36 °FClear.1 mph87%30.54 "Hg10 mi
3:50 am36 °FClear.1 mph93%30.54 "Hg10 mi
3:20 am36 °FClear.2 mph93%30.54 "Hg10 mi
2:50 am36 °FClear.1 mph93%30.54 "Hg10 mi
2:20 am36 °FClear.1 mph100%30.57 "Hg10 mi
1:50 am37 °FClear.1 mph87%30.57 "Hg10 mi
1:20 am39 °FClear.2 mph87%30.57 "Hg10 mi
Weather by CustomWeather, © 2019

See weather overview